| time (UTC) | temp F | wind direction | speed MPH | gust MPH | rain 1hr in | rain 24hr in | rain mn in | humidity % | barometer mb |
| 20260903023505 | 75 | 0 | 0.0 | 0.0 | 0.00 | 0.00 | 0.00 | 78 | 1021.5 |
| 20260903023005 | 75 | 0 | 0.0 | 0.0 | 0.00 | 0.00 | 0.00 | 78 | 1021.6 |
| 20260903022505 | 75 | 0 | 0.0 | 0.0 | 0.00 | 0.00 | 0.00 | 78 | 1021.6 |
| 20260903022008 | 75 | 0 | 0.0 | 0.0 | 0.00 | 0.00 | 0.00 | 78 | 1021.7 |
| 20260903021505 | 75 | 0 | 0.0 | 0.0 | 0.00 | 0.00 | 0.00 | 78 | 1021.8 |
| 20260903021018 | 74 | 0 | 0.0 | 0.0 | 0.00 | 0.00 | 0.00 | 78 | 1021.7 |
| 20260903020505 | 74 | 0 | 0.0 | 0.0 | 0.00 | 0.00 | 0.00 | 78 | 1021.7 |
| 20260903020013 | 74 | 0 | 0.0 | 0.0 | 0.00 | 0.00 | 0.00 | 79 | 1021.6 |
| 20260903015210 | 74 | 0 | 0.0 | 0.0 | 0.00 | 0.00 | 0.00 | 78 | 1021.7 |
| 20260903014721 | 74 | 0 | 0.0 | 0.0 | 0.00 | 0.00 | 0.00 | 79 | 1021.6 |
| 20260903014210 | 74 | 0 | 0.0 | 0.0 | 0.00 | 0.00 | 0.00 | 78 | 1021.6 |
| 20260903013710 | 74 | 0 | 0.0 | 0.0 | 0.00 | 0.00 | 0.00 | 78 | 1021.5 |
| 20260903013210 | 75 | 0 | 0.0 | 0.0 | 0.00 | 0.00 | 0.00 | 79 | 1021.5 |
| 20260903012710 | 75 | 0 | 0.0 | 0.0 | 0.00 | 0.00 | 0.00 | 79 | 1021.4 |
| 20260903012210 | 75 | 0 | 0.0 | 0.0 | 0.00 | 0.00 | 0.00 | 79 | 1021.4 |
| 20260903011710 | 75 | 0 | 0.0 | 0.0 | 0.00 | 0.00 | 0.00 | 79 | 1021.3 |
| 20260903011221 | 75 | 0 | 0.0 | 0.0 | 0.00 | 0.00 | 0.00 | 78 | 1021.4 |
| 20260903010710 | 75 | 0 | 0.0 | 0.0 | 0.00 | 0.00 | 0.00 | 77 | 1021.4 |
| 20260903010210 | 75 | 0 | 0.0 | 0.0 | 0.00 | 0.00 | 0.00 | 77 | 1021.4 |
| 20260903005710 | 75 | 0 | 0.0 | 0.0 | 0.00 | 0.00 | 0.00 | 77 | 1021.3 |
| 20260903005211 | 75 | 0 | 0.0 | 0.0 | 0.00 | 0.00 | 0.00 | 77 | 1021.2 |
| 20260903004710 | 76 | 0 | 0.0 | 0.0 | 0.00 | 0.00 | 0.00 | 77 | 1021.3 |
| 20260903004210 | 76 | 0 | 0.0 | 0.0 | 0.00 | 0.00 | 0.00 | 76 | 1021.2 |
| 20260903003721 | 76 | 0 | 0.0 | 0.0 | 0.00 | 0.00 | 0.00 | 76 | 1021.1 |
| 20260903002734 | 76 | 0 | 0.0 | 0.0 | 0.00 | 0.00 | 0.00 | 76 | 1021.0 |
| 20260903002234 | 76 | 0 | 0.0 | 0.0 | 0.00 | 0.00 | 0.00 | 75 | 1021.0 |
| 20260903001734 | 77 | 0 | 0.0 | 0.0 | 0.00 | 0.00 | 0.00 | 75 | 1021.0 |
| 20260903001234 | 77 | 0 | 0.0 | 0.0 | 0.00 | 0.00 | 0.00 | 75 | 1020.9 |
| 20260903000734 | 77 | 0 | 0.0 | 0.0 | 0.00 | 0.00 | 0.00 | 74 | 1020.9 |
| 20260903000234 | 77 | 0 | 0.0 | 0.0 | 0.00 | 0.00 | 0.00 | 74 | 1020.8 |
| 20260902235734 | 78 | 0 | 0.0 | 0.0 | 0.00 | 0.00 | 0.00 | 74 | 1020.8 |
| 20260902235234 | 78 | 0 | 0.0 | 0.0 | 0.00 | 0.00 | 0.00 | 73 | 1020.8 |
| 20260902234734 | 78 | 0 | 0.0 | 0.0 | 0.00 | 0.00 | 0.00 | 73 | 1020.8 |
| 20260902234239 | 78 | 0 | 0.0 | 0.0 | 0.00 | 0.00 | 0.00 | 73 | 1020.7 |
| 20260902233745 | 79 | 0 | 0.0 | 0.0 | 0.00 | 0.00 | 0.00 | 73 | 1020.8 |
| 20260902233239 | 79 | 0 | 0.0 | 0.0 | 0.00 | 0.00 | 0.00 | 73 | 1020.8 |
| 20260902232734 | 79 | 0 | 0.0 | 0.0 | 0.00 | 0.00 | 0.00 | 72 | 1020.8 |
| 20260902232234 | 79 | 0 | 0.0 | 0.0 | 0.00 | 0.00 | 0.00 | 71 | 1020.9 |
| 20260902231738 | 79 | 0 | 0.0 | 0.0 | 0.00 | 0.00 | 0.00 | 72 | 1020.8 |
| 20260902231234 | 79 | 0 | 0.0 | 0.0 | 0.00 | 0.00 | 0.00 | 71 | 1020.7 |
| 20260902230734 | 80 | 0 | 0.0 | 0.0 | 0.00 | 0.00 | 0.00 | 71 | 1020.7 |
| 20260902230234 | 80 | 0 | 0.0 | 0.0 | 0.00 | 0.00 | 0.00 | 71 | 1020.6 |
| 20260902225735 | 80 | 0 | 0.0 | 0.0 | 0.00 | 0.00 | 0.00 | 72 | 1020.7 |
| 20260902225234 | 81 | 0 | 0.0 | 0.0 | 0.00 | 0.00 | 0.00 | 72 | 1020.7 |
| 20260902224447 | 81 | 0 | 0.0 | 0.0 | 0.00 | 0.00 | 0.00 | 71 | 1020.7 |
| 20260902223947 | 81 | 0 | 0.0 | 0.0 | 0.00 | 0.00 | 0.00 | 70 | 1020.7 |
| 20260902223447 | 81 | 0 | 0.0 | 0.0 | 0.00 | 0.00 | 0.00 | 70 | 1020.8 |
| 20260902222947 | 82 | 0 | 0.0 | 0.0 | 0.00 | 0.00 | 0.00 | 70 | 1020.7 |
| 20260902222447 | 82 | 0 | 0.0 | 0.0 | 0.00 | 0.00 | 0.00 | 70 | 1020.8 |
| 20260902221613 | 82 | 0 | 0.0 | 0.0 | 0.00 | 0.00 | 0.00 | 69 | 1020.7 |
| 20260902221052 | 83 | 0 | 0.0 | 0.0 | 0.00 | 0.00 | 0.00 | 68 | 1020.7 |
| 20260902220613 | 83 | 0 | 0.0 | 0.0 | 0.00 | 0.00 | 0.00 | 66 | 1020.8 |
| 20260902220052 | 83 | 0 | 0.0 | 0.0 | 0.00 | 0.00 | 0.00 | 67 | 1020.8 |
| 20260902215552 | 84 | 0 | 0.0 | 0.0 | 0.00 | 0.00 | 0.00 | 68 | 1020.9 |
| 20260902215053 | 84 | 0 | 0.0 | 0.0 | 0.00 | 0.00 | 0.00 | 67 | 1020.9 |
| 20260902214552 | 84 | 0 | 0.0 | 0.0 | 0.00 | 0.00 | 0.00 | 67 | 1020.9 |
| 20260902214052 | 84 | 0 | 0.0 | 2.0 | 0.00 | 0.00 | 0.00 | 64 | 1020.9 |
| 20260902213553 | 85 | 0 | 0.0 | 2.0 | 0.00 | 0.00 | 0.00 | 62 | 1020.9 |
| 20260902213052 | 85 | 0 | 0.0 | 1.0 | 0.00 | 0.00 | 0.00 | 62 | 1020.9 |
| 20260902212611 | 86 | 0 | 0.0 | 0.0 | 0.00 | 0.00 | 0.00 | 64 | 1020.8 |
| 20260902212052 | 86 | 0 | 0.0 | 0.0 | 0.00 | 0.00 | 0.00 | 62 | 1020.9 |
| 20260902211552 | 86 | 0 | 0.0 | 0.0 | 0.00 | 0.00 | 0.00 | 63 | 1020.8 |
| 20260902211052 | 87 | 0 | 0.0 | 0.0 | 0.00 | 0.00 | 0.00 | 62 | 1020.7 |
| 20260902210606 | 87 | 0 | 0.0 | 0.0 | 0.00 | 0.00 | 0.00 | 63 | 1020.8 |
| 20260902210052 | 87 | 0 | 0.0 | 0.0 | 0.00 | 0.00 | 0.00 | 62 | 1020.7 |
| 20260902205552 | 87 | 0 | 0.0 | 0.0 | 0.00 | 0.00 | 0.00 | 64 | 1020.7 |
| 20260902205055 | 87 | 0 | 0.0 | 2.0 | 0.00 | 0.00 | 0.00 | 63 | 1020.7 |
| 20260902204552 | 87 | 0 | 0.0 | 2.0 | 0.00 | 0.00 | 0.00 | 62 | 1020.7 |
| 20260902204052 | 87 | 0 | 0.0 | 2.0 | 0.00 | 0.00 | 0.00 | 61 | 1020.7 |
| 20260902203209 | 87 | 0 | 0.0 | 3.0 | 0.00 | 0.00 | 0.00 | 60 | 1020.6 |
| 20260902202706 | 87 | 0 | 0.0 | 2.0 | 0.00 | 0.00 | 0.00 | 59 | 1020.7 |
| 20260902202206 | 87 | 0 | 0.0 | 2.0 | 0.00 | 0.00 | 0.00 | 58 | 1020.7 |
| 20260902201706 | 87 | 0 | 0.0 | 3.0 | 0.00 | 0.00 | 0.00 | 59 | 1020.6 |
| 20260902201206 | 87 | 90 | 1.0 | 3.0 | 0.00 | 0.00 | 0.00 | 62 | 1020.8 |
| 20260902200706 | 87 | 0 | 0.0 | 2.0 | 0.00 | 0.00 | 0.00 | 62 | 1020.9 |
| 20260902195717 | 87 | 0 | 0.0 | 2.0 | 0.00 | 0.00 | 0.00 | 62 | 1021.0 |
| 20260902195217 | 87 | 0 | 0.0 | 2.0 | 0.00 | 0.00 | 0.00 | 62 | 1021.2 |
| 20260902194718 | 88 | 0 | 0.0 | 2.0 | 0.00 | 0.00 | 0.00 | 59 | 1021.2 |
| 20260902194217 | 89 | 0 | 0.0 | 2.0 | 0.00 | 0.00 | 0.00 | 61 | 1021.3 |
| 20260902193717 | 88 | 0 | 0.0 | 3.0 | 0.00 | 0.00 | 0.00 | 60 | 1021.4 |
| 20260902193219 | 88 | 0 | 0.0 | 3.0 | 0.00 | 0.00 | 0.00 | 58 | 1021.4 |
| 20260902192717 | 89 | 0 | 0.0 | 2.0 | 0.00 | 0.00 | 0.00 | 57 | 1021.4 |
| 20260902192217 | 88 | 0 | 0.0 | 2.0 | 0.00 | 0.00 | 0.00 | 61 | 1021.4 |
| 20260902191722 | 89 | 0 | 0.0 | 2.0 | 0.00 | 0.00 | 0.00 | 58 | 1021.5 |
| 20260902191217 | 89 | 0 | 0.0 | 2.0 | 0.00 | 0.00 | 0.00 | 55 | 1021.6 |
| 20260902190717 | 89 | 0 | 0.0 | 2.0 | 0.00 | 0.00 | 0.00 | 55 | 1021.6 |
| 20260902190217 | 88 | 0 | 0.0 | 2.0 | 0.00 | 0.00 | 0.00 | 59 | 1021.5 |
| 20260902185717 | 88 | 89 | 1.0 | 2.0 | 0.00 | 0.00 | 0.00 | 61 | 1021.6 |
| 20260902185223 | 87 | 0 | 0.0 | 2.0 | 0.00 | 0.00 | 0.00 | 57 | 1021.6 |
| 20260902184717 | 88 | 0 | 0.0 | 2.0 | 0.00 | 0.00 | 0.00 | 63 | 1021.5 |
| 20260902184217 | 87 | 0 | 0.0 | 2.0 | 0.00 | 0.00 | 0.00 | 63 | 1021.6 |
| 20260902183717 | 87 | 0 | 0.0 | 2.0 | 0.00 | 0.00 | 0.00 | 64 | 1021.5 |
| 20260902183217 | 87 | 0 | 0.0 | 2.0 | 0.00 | 0.00 | 0.00 | 66 | 1021.7 |
| 20260902182717 | 87 | 0 | 0.0 | 2.0 | 0.00 | 0.00 | 0.00 | 63 | 1021.7 |
| 20260902182223 | 88 | 0 | 0.0 | 6.0 | 0.00 | 0.00 | 0.00 | 60 | 1021.7 |
| 20260902181717 | 88 | 0 | 0.0 | 6.0 | 0.00 | 0.00 | 0.00 | 62 | 1021.6 |
| 20260902181217 | 89 | 0 | 0.0 | 1.0 | 0.00 | 0.00 | 0.00 | 63 | 1021.6 |
| 20260902180722 | 88 | 0 | 0.0 | 2.0 | 0.00 | 0.00 | 0.00 | 63 | 1021.6 |
| 20260902180218 | 88 | 0 | 0.0 | 2.0 | 0.00 | 0.00 | 0.00 | 58 | 1021.7 |
| 20260902175717 | 89 | 0 | 0.0 | 2.0 | 0.00 | 0.00 | 0.00 | 60 | 1021.7 |
| 20260902175217 | 89 | 0 | 0.0 | 2.0 | 0.00 | 0.00 | 0.00 | 58 | 1021.8 |
| 20260902174717 | 89 | 0 | 0.0 | 2.0 | 0.00 | 0.00 | 0.00 | 59 | 1021.7 |
| 20260902174217 | 90 | 0 | 0.0 | 3.0 | 0.00 | 0.00 | 0.00 | 61 | 1021.8 |
| 20260902173717 | 89 | 0 | 0.0 | 3.0 | 0.00 | 0.00 | 0.00 | 58 | 1021.8 |
| 20260902173218 | 90 | 0 | 0.0 | 1.0 | 0.00 | 0.00 | 0.00 | 61 | 1021.9 |
| 20260902172717 | 90 | 0 | 0.0 | 2.0 | 0.00 | 0.00 | 0.00 | 64 | 1021.9 |
| 20260902172220 | 90 | 0 | 0.0 | 4.0 | 0.00 | 0.00 | 0.00 | 63 | 1022.0 |
| 20260902171717 | 90 | 235 | 1.0 | 4.0 | 0.00 | 0.00 | 0.00 | 59 | 1021.9 |
| 20260902171217 | 89 | 0 | 0.0 | 2.0 | 0.00 | 0.00 | 0.00 | 63 | 1022.0 |
| 20260902170717 | 89 | 0 | 0.0 | 3.0 | 0.00 | 0.00 | 0.00 | 60 | 1022.1 |
| 20260902170217 | 90 | 0 | 0.0 | 3.0 | 0.00 | 0.00 | 0.00 | 60 | 1022.2 |
| 20260902165717 | 90 | 0 | 0.0 | 1.0 | 0.00 | 0.00 | 0.00 | 62 | 1022.3 |
| 20260902165217 | 90 | 0 | 0.0 | 2.0 | 0.00 | 0.00 | 0.00 | 59 | 1022.2 |
| 20260902164717 | 90 | 0 | 0.0 | 2.0 | 0.00 | 0.00 | 0.00 | 60 | 1022.2 |
| 20260902164219 | 89 | 128 | 1.0 | 2.0 | 0.00 | 0.00 | 0.00 | 58 | 1022.3 |
| 20260902163720 | 89 | 0 | 0.0 | 2.0 | 0.00 | 0.00 | 0.00 | 60 | 1022.4 |
| 20260902163224 | 90 | 0 | 0.0 | 2.0 | 0.00 | 0.00 | 0.00 | 60 | 1022.3 |
| 20260902162717 | 90 | 0 | 0.0 | 2.0 | 0.00 | 0.00 | 0.00 | 58 | 1022.3 |
| 20260902162219 | 90 | 0 | 0.0 | 2.0 | 0.00 | 0.00 | 0.00 | 60 | 1022.6 |
| 20260902161717 | 90 | 0 | 0.0 | 2.0 | 0.00 | 0.00 | 0.00 | 60 | 1022.6 |
| 20260902161217 | 89 | 0 | 0.0 | 3.0 | 0.00 | 0.00 | 0.00 | 60 | 1022.6 |
| 20260902160717 | 89 | 0 | 0.0 | 3.0 | 0.00 | 0.00 | 0.00 | 57 | 1022.8 |
| 20260902160220 | 89 | 0 | 0.0 | 2.0 | 0.00 | 0.00 | 0.00 | 64 | 1022.8 |
| 20260902155717 | 89 | 0 | 0.0 | 2.0 | 0.00 | 0.00 | 0.00 | 58 | 1022.8 |
| 20260902155219 | 88 | 0 | 0.0 | 2.0 | 0.00 | 0.00 | 0.00 | 63 | 1022.7 |
| 20260902154717 | 88 | 0 | 0.0 | 2.0 | 0.00 | 0.00 | 0.00 | 61 | 1022.7 |
| 20260902154217 | 88 | 0 | 0.0 | 1.0 | 0.00 | 0.00 | 0.00 | 58 | 1022.8 |
| 20260902153717 | 89 | 0 | 0.0 | 1.0 | 0.00 | 0.00 | 0.00 | 58 | 1022.9 |
| 20260902153222 | 89 | 0 | 0.0 | 1.0 | 0.00 | 0.00 | 0.00 | 56 | 1022.9 |
| 20260902152719 | 90 | 0 | 0.0 | 2.0 | 0.00 | 0.00 | 0.00 | 57 | 1023.0 |
| 20260902152217 | 91 | 0 | 0.0 | 2.0 | 0.00 | 0.00 | 0.00 | 58 | 1022.8 |
| 20260902151721 | 90 | 0 | 0.0 | 2.0 | 0.00 | 0.00 | 0.00 | 59 | 1023.0 |
| 20260902151217 | 90 | 0 | 0.0 | 5.0 | 0.00 | 0.00 | 0.00 | 56 | 1022.9 |
| 20260902150723 | 90 | 0 | 0.0 | 5.0 | 0.00 | 0.00 | 0.00 | 55 | 1023.0 |
| 20260902150220 | 90 | 0 | 0.0 | 2.0 | 0.00 | 0.00 | 0.00 | 57 | 1022.9 |
| 20260902145717 | 89 | 0 | 0.0 | 3.0 | 0.00 | 0.00 | 0.00 | 55 | 1022.8 |
| 20260902145217 | 89 | 0 | 0.0 | 3.0 | 0.00 | 0.00 | 0.00 | 61 | 1022.8 |
| 20260902144717 | 89 | 0 | 0.0 | 3.0 | 0.00 | 0.00 | 0.00 | 58 | 1022.8 |
| 20260902144217 | 89 | 0 | 0.0 | 3.0 | 0.00 | 0.00 | 0.00 | 60 | 1022.7 |
| 20260902143717 | 89 | 0 | 0.0 | 3.0 | 0.00 | 0.00 | 0.00 | 59 | 1022.7 |
| 20260902143217 | 88 | 0 | 0.0 | 3.0 | 0.00 | 0.00 | 0.00 | 63 | 1022.7 |
| 20260902142720 | 88 | 0 | 0.0 | 4.0 | 0.00 | 0.00 | 0.00 | 61 | 1022.7 |
| 20260902142217 | 88 | 56 | 1.0 | 4.0 | 0.00 | 0.00 | 0.00 | 63 | 1022.6 |
| 20260902141717 | 87 | 56 | 1.0 | 3.0 | 0.00 | 0.00 | 0.00 | 62 | 1022.6 |
| 20260902141217 | 87 | 0 | 0.0 | 2.0 | 0.00 | 0.00 | 0.00 | 64 | 1022.6 |
| 20260902140718 | 87 | 0 | 0.0 | 2.0 | 0.00 | 0.00 | 0.00 | 66 | 1022.5 |
| 20260902135721 | 86 | 0 | 0.0 | 4.0 | 0.00 | 0.00 | 0.00 | 67 | 1022.6 |
| 20260902135222 | 85 | 0 | 0.0 | 4.0 | 0.00 | 0.00 | 0.00 | 67 | 1022.6 |
| 20260902134253 | 84 | 56 | 1.0 | 2.0 | 0.00 | 0.00 | 0.00 | 68 | 1022.6 |
| 20260902133753 | 84 | 56 | 1.0 | 2.0 | 0.00 | 0.00 | 0.00 | 69 | 1022.7 |
| 20260902133250 | 83 | 0 | 0.0 | 2.0 | 0.00 | 0.00 | 0.00 | 70 | 1022.8 |
| 20260902132756 | 83 | 0 | 0.0 | 2.0 | 0.00 | 0.00 | 0.00 | 71 | 1022.7 |
| 20260902132250 | 82 | 0 | 0.0 | 2.0 | 0.00 | 0.00 | 0.00 | 72 | 1022.7 |
| 20260902131750 | 82 | 0 | 0.0 | 2.0 | 0.00 | 0.00 | 0.00 | 72 | 1022.8 |
| 20260902131250 | 81 | 0 | 0.0 | 2.0 | 0.00 | 0.00 | 0.00 | 73 | 1021.9 |
| 20260902130750 | 80 | 57 | 1.0 | 2.0 | 0.00 | 0.00 | 0.00 | 73 | 1021.8 |
| 20260902130306 | 80 | 0 | 0.0 | 2.0 | 0.00 | 0.00 | 0.00 | 74 | 1022.0 |
| 20260902125750 | 79 | 0 | 0.0 | 4.0 | 0.00 | 0.00 | 0.00 | 75 | 1021.9 |
| 20260902125250 | 78 | 57 | 1.0 | 4.0 | 0.00 | 0.00 | 0.00 | 76 | 1021.9 |
| 20260902124750 | 78 | 57 | 1.0 | 4.0 | 0.00 | 0.00 | 0.00 | 78 | 1022.0 |
| 20260902124250 | 77 | 59 | 1.0 | 4.0 | 0.00 | 0.00 | 0.00 | 78 | 1022.0 |
| 20260902123755 | 76 | 31 | 1.0 | 3.0 | 0.00 | 0.00 | 0.00 | 79 | 1021.9 |
| 20260902123250 | 76 | 31 | 1.0 | 3.0 | 0.00 | 0.00 | 0.00 | 80 | 1021.8 |
| 20260902122750 | 75 | 31 | 1.0 | 3.0 | 0.00 | 0.00 | 0.00 | 81 | 1021.8 |
| 20260902122250 | 74 | 31 | 1.0 | 4.0 | 0.00 | 0.00 | 0.00 | 82 | 1021.9 |
| 20260902121750 | 74 | 31 | 2.0 | 4.0 | 0.00 | 0.00 | 0.00 | 83 | 1021.8 |
| 20260902121250 | 73 | 33 | 1.0 | 4.0 | 0.00 | 0.00 | 0.00 | 84 | 1021.8 |
| 20260902120750 | 72 | 33 | 1.0 | 2.0 | 0.00 | 0.00 | 0.00 | 85 | 1021.8 |
| 20260902120250 | 72 | 33 | 1.0 | 3.0 | 0.00 | 0.00 | 0.00 | 86 | 1021.8 |
| 20260902115750 | 71 | 33 | 1.0 | 4.0 | 0.00 | 0.00 | 0.00 | 87 | 1021.8 |
| 20260902115252 | 71 | 0 | 0.0 | 4.0 | 0.00 | 0.00 | 0.00 | 87 | 1021.7 |
| 20260902114750 | 71 | 0 | 0.0 | 2.0 | 0.00 | 0.00 | 0.00 | 87 | 1021.8 |
| 20260902114250 | 71 | 0 | 0.0 | 3.0 | 0.00 | 0.00 | 0.00 | 87 | 1021.8 |
| 20260902113757 | 70 | 36 | 1.0 | 3.0 | 0.00 | 0.00 | 0.00 | 87 | 1021.7 |
| 20260902113250 | 70 | 0 | 0.0 | 3.0 | 0.00 | 0.00 | 0.00 | 87 | 1021.6 |
| 20260902112750 | 70 | 0 | 0.0 | 3.0 | 0.00 | 0.00 | 0.00 | 87 | 1021.6 |
| 20260902112253 | 70 | 0 | 0.0 | 3.0 | 0.00 | 0.00 | 0.00 | 87 | 1021.4 |
| 20260902111812 | 70 | 36 | 1.0 | 3.0 | 0.00 | 0.00 | 0.00 | 87 | 1021.5 |
| 20260902111250 | 70 | 36 | 1.0 | 3.0 | 0.00 | 0.00 | 0.00 | 87 | 1021.4 |
| 20260902110750 | 70 | 355 | 1.0 | 3.0 | 0.00 | 0.00 | 0.00 | 87 | 1021.4 |
| 20260902110306 | 70 | 355 | 1.0 | 4.0 | 0.00 | 0.00 | 0.00 | 88 | 1021.4 |
| 20260902105750 | 70 | 355 | 1.0 | 4.0 | 0.00 | 0.00 | 0.00 | 87 | 1021.4 |
| 20260902105250 | 70 | 350 | 1.0 | 3.0 | 0.00 | 0.00 | 0.00 | 87 | 1021.4 |
| 20260902104805 | 70 | 0 | 0.0 | 3.0 | 0.00 | 0.00 | 0.00 | 87 | 1021.4 |
| 20260902104254 | 70 | 350 | 1.0 | 3.0 | 0.00 | 0.00 | 0.00 | 87 | 1021.5 |
| 20260902103756 | 70 | 355 | 1.0 | 3.0 | 0.00 | 0.00 | 0.00 | 87 | 1021.4 |
| 20260902103250 | 70 | 350 | 1.0 | 3.0 | 0.00 | 0.00 | 0.00 | 87 | 1021.3 |
| 20260902102750 | 70 | 350 | 1.0 | 3.0 | 0.00 | 0.00 | 0.00 | 87 | 1021.4 |
| 20260902102250 | 70 | 350 | 1.0 | 3.0 | 0.00 | 0.00 | 0.00 | 87 | 1021.3 |
| 20260902101750 | 70 | 350 | 1.0 | 3.0 | 0.00 | 0.00 | 0.00 | 87 | 1021.4 |
| 20260902101252 | 70 | 350 | 1.0 | 3.0 | 0.00 | 0.00 | 0.00 | 87 | 1021.3 |
| 20260902100750 | 70 | 348 | 2.0 | 3.0 | 0.00 | 0.00 | 0.00 | 87 | 1021.1 |
| 20260902100016 | 70 | 340 | 1.0 | 4.0 | 0.00 | 0.00 | 0.00 | 87 | 1021.0 |
| 20260902095522 | 70 | 340 | 2.0 | 4.0 | 0.00 | 0.00 | 0.00 | 87 | 1021.0 |
| 20260902095013 | 70 | 340 | 2.0 | 4.0 | 0.00 | 0.00 | 0.00 | 87 | 1021.0 |
| 20260902094513 | 70 | 341 | 1.0 | 4.0 | 0.00 | 0.00 | 0.00 | 87 | 1020.9 |
| 20260902094013 | 70 | 341 | 1.0 | 4.0 | 0.00 | 0.00 | 0.00 | 87 | 1021.0 |
| 20260902093409 | 70 | 345 | 1.0 | 4.0 | 0.00 | 0.00 | 0.00 | 87 | 1020.9 |
| 20260902092922 | 70 | 347 | 2.0 | 4.0 | 0.00 | 0.00 | 0.00 | 87 | 1020.8 |
| 20260902092407 | 70 | 346 | 1.0 | 4.0 | 0.00 | 0.00 | 0.00 | 87 | 1020.8 |
| 20260902091907 | 70 | 346 | 2.0 | 4.0 | 0.00 | 0.00 | 0.00 | 87 | 1020.9 |
| 20260902091407 | 70 | 342 | 2.0 | 4.0 | 0.00 | 0.00 | 0.00 | 87 | 1020.9 |
| 20260902090911 | 70 | 342 | 2.0 | 4.0 | 0.00 | 0.00 | 0.00 | 87 | 1020.9 |
| 20260902090413 | 70 | 345 | 2.0 | 4.0 | 0.00 | 0.00 | 0.00 | 87 | 1021.0 |
| 20260902085907 | 70 | 353 | 2.0 | 4.0 | 0.00 | 0.00 | 0.00 | 87 | 1021.0 |
| 20260902085407 | 70 | 357 | 2.0 | 4.0 | 0.00 | 0.00 | 0.00 | 87 | 1021.0 |
| 20260902084910 | 70 | 331 | 2.0 | 4.0 | 0.00 | 0.00 | 0.00 | 87 | 1021.0 |
| 20260902084408 | 70 | 330 | 2.0 | 4.0 | 0.00 | 0.00 | 0.00 | 87 | 1020.7 |
| 20260902083910 | 70 | 315 | 2.0 | 4.0 | 0.00 | 0.00 | 0.00 | 87 | 1020.8 |
| 20260902083410 | 70 | 329 | 2.0 | 4.0 | 0.00 | 0.00 | 0.00 | 88 | 1020.8 |
| 20260902082909 | 70 | 332 | 2.0 | 4.0 | 0.00 | 0.00 | 0.00 | 87 | 1020.8 |
| 20260902082408 | 70 | 333 | 2.0 | 4.0 | 0.00 | 0.00 | 0.00 | 88 | 1020.7 |
| 20260902081909 | 70 | 311 | 2.0 | 4.0 | 0.00 | 0.00 | 0.00 | 88 | 1020.7 |
| 20260902081408 | 70 | 336 | 2.0 | 4.0 | 0.00 | 0.00 | 0.00 | 88 | 1020.7 |
| 20260902080907 | 70 | 353 | 2.0 | 4.0 | 0.00 | 0.00 | 0.00 | 88 | 1020.7 |
| 20260902080407 | 70 | 330 | 2.0 | 4.0 | 0.00 | 0.00 | 0.00 | 88 | 1020.7 |
| 20260902075907 | 70 | 331 | 2.0 | 4.0 | 0.00 | 0.00 | 0.00 | 88 | 1020.6 |
| 20260902075045 | 71 | 357 | 2.0 | 4.0 | 0.00 | 0.00 | 0.00 | 87 | 1020.7 |
| 20260902074544 | 71 | 333 | 2.0 | 5.0 | 0.00 | 0.00 | 0.00 | 87 | 1020.8 |
| 20260902074115 | 71 | 329 | 1.0 | 5.0 | 0.00 | 0.00 | 0.00 | 87 | 1020.8 |
| 20260902073207 | 71 | 328 | 1.0 | 4.0 | 0.00 | 0.00 | 0.00 | 87 | 1020.8 |
| 20260902072708 | 71 | 327 | 2.0 | 4.0 | 0.00 | 0.00 | 0.00 | 87 | 1020.7 |
| 20260902072206 | 71 | 326 | 1.0 | 5.0 | 0.00 | 0.00 | 0.00 | 87 | 1020.8 |
| 20260902071707 | 71 | 324 | 3.0 | 5.0 | 0.00 | 0.00 | 0.00 | 87 | 1020.9 |
| 20260902071206 | 71 | 320 | 1.0 | 5.0 | 0.00 | 0.00 | 0.00 | 87 | 1021.0 |
| 20260902070723 | 71 | 333 | 2.0 | 5.0 | 0.00 | 0.00 | 0.00 | 87 | 1020.9 |
| 20260902070435 | 71 | 342 | 2.0 | 5.0 | 0.00 | 0.00 | 0.00 | 87 | 1020.8 |
| 20260902070207 | 71 | 342 | 2.0 | 5.0 | 0.00 | 0.00 | 0.00 | 87 | 1020.8 |
| 20260902065706 | 71 | 322 | 2.0 | 5.0 | 0.00 | 0.00 | 0.00 | 87 | 1020.6 |
| 20260902065206 | 71 | 323 | 2.0 | 5.0 | 0.00 | 0.00 | 0.00 | 87 | 1020.6 |
| 20260902064706 | 71 | 329 | 2.0 | 5.0 | 0.00 | 0.00 | 0.00 | 87 | 1020.7 |
| 20260902064206 | 71 | 320 | 2.0 | 5.0 | 0.00 | 0.00 | 0.00 | 87 | 1020.7 |
| 20260902063706 | 71 | 327 | 2.0 | 5.0 | 0.00 | 0.00 | 0.00 | 87 | 1020.7 |
| 20260902063208 | 71 | 319 | 2.0 | 5.0 | 0.00 | 0.00 | 0.00 | 86 | 1020.6 |
| 20260902062706 | 71 | 323 | 2.0 | 5.0 | 0.00 | 0.00 | 0.00 | 86 | 1020.8 |
| 20260902062206 | 71 | 322 | 2.0 | 5.0 | 0.00 | 0.00 | 0.00 | 86 | 1020.7 |
| 20260902061707 | 71 | 320 | 2.0 | 4.0 | 0.00 | 0.00 | 0.00 | 86 | 1020.7 |
| 20260902061206 | 71 | 335 | 2.0 | 4.0 | 0.00 | 0.00 | 0.00 | 86 | 1020.7 |
| 20260902060706 | 71 | 333 | 2.0 | 4.0 | 0.00 | 0.00 | 0.00 | 86 | 1020.7 |
| 20260902060208 | 71 | 317 | 2.0 | 4.0 | 0.00 | 0.00 | 0.00 | 86 | 1020.5 |
| 20260902055716 | 71 | 318 | 2.0 | 4.0 | 0.00 | 0.00 | 0.00 | 86 | 1020.5 |
| 20260902055206 | 71 | 320 | 2.0 | 4.0 | 0.00 | 0.00 | 0.00 | 86 | 1020.4 |
| 20260902054706 | 71 | 317 | 2.0 | 4.0 | 0.00 | 0.00 | 0.00 | 86 | 1020.4 |
| 20260902054220 | 71 | 319 | 2.0 | 5.0 | 0.00 | 0.00 | 0.00 | 86 | 1020.4 |
| 20260902053718 | 71 | 316 | 2.0 | 5.0 | 0.00 | 0.00 | 0.00 | 85 | 1020.4 |
| 20260902053207 | 71 | 322 | 2.0 | 4.0 | 0.00 | 0.00 | 0.00 | 85 | 1020.4 |
| 20260902052706 | 71 | 324 | 2.0 | 4.0 | 0.00 | 0.00 | 0.00 | 85 | 1020.5 |
| 20260902052206 | 71 | 314 | 2.0 | 4.0 | 0.00 | 0.00 | 0.00 | 85 | 1020.4 |
| 20260902051706 | 71 | 313 | 2.0 | 5.0 | 0.00 | 0.00 | 0.00 | 84 | 1020.4 |
| 20260902051206 | 71 | 310 | 2.0 | 5.0 | 0.00 | 0.00 | 0.00 | 84 | 1020.4 |
| 20260902050721 | 71 | 326 | 2.0 | 4.0 | 0.00 | 0.00 | 0.00 | 83 | 1020.4 |
| 20260902050209 | 71 | 346 | 2.0 | 4.0 | 0.00 | 0.00 | 0.00 | 83 | 1020.4 |
| 20260902045323 | 71 | 29 | 2.0 | 4.0 | 0.00 | 0.00 | 0.00 | 83 | 1020.4 |
| 20260902044328 | 71 | 318 | 2.0 | 4.0 | 0.00 | 0.00 | 0.00 | 82 | 1020.4 |
| 20260902043828 | 71 | 324 | 2.0 | 5.0 | 0.00 | 0.00 | 0.00 | 83 | 1020.3 |
| 20260902043330 | 71 | 324 | 2.0 | 5.0 | 0.00 | 0.00 | 0.00 | 82 | 1020.4 |
| 20260902042829 | 71 | 332 | 2.0 | 4.0 | 0.00 | 0.00 | 0.00 | 82 | 1020.3 |
| 20260902042328 | 72 | 342 | 2.0 | 4.0 | 0.00 | 0.00 | 0.00 | 83 | 1020.2 |
| 20260902041828 | 72 | 319 | 2.0 | 5.0 | 0.00 | 0.00 | 0.00 | 83 | 1020.3 |
| 20260902041328 | 72 | 331 | 2.0 | 5.0 | 0.00 | 0.00 | 0.00 | 83 | 1020.3 |
| 20260902040828 | 72 | 326 | 2.0 | 5.0 | 0.00 | 0.00 | 0.00 | 82 | 1020.5 |
| 20260902040328 | 72 | 328 | 2.0 | 5.0 | 0.00 | 0.00 | 0.00 | 82 | 1020.5 |
| 20260902035829 | 72 | 343 | 2.0 | 8.0 | 0.00 | 0.00 | 0.00 | 82 | 1020.5 |
| 20260902035328 | 72 | 338 | 2.0 | 8.0 | 0.00 | 0.00 | 0.00 | 82 | 1020.5 |
| 20260902034830 | 72 | 322 | 2.0 | 4.0 | 0.00 | 0.00 | 0.00 | 82 | 1020.6 |
| 20260902034328 | 72 | 344 | 2.0 | 6.0 | 0.00 | 0.00 | 0.00 | 83 | 1020.6 |
| 20260902033828 | 72 | 337 | 2.0 | 6.0 | 0.00 | 0.00 | 0.00 | 83 | 1020.7 |
| 20260902033328 | 72 | 324 | 2.0 | 4.0 | 0.00 | 0.00 | 0.00 | 83 | 1020.6 |
| 20260902032828 | 71 | 340 | 2.0 | 4.0 | 0.00 | 0.00 | 0.00 | 83 | 1020.6 |
| 20260902032328 | 71 | 14 | 1.0 | 4.0 | 0.00 | 0.00 | 0.00 | 83 | 1020.6 |
| 20260902031850 | 72 | 23 | 1.0 | 3.0 | 0.00 | 0.00 | 0.00 | 83 | 1020.6 |
| 20260902031328 | 72 | 32 | 2.0 | 3.0 | 0.00 | 0.00 | 0.00 | 83 | 1020.6 |
| 20260902030849 | 72 | 38 | 1.0 | 3.0 | 0.00 | 0.00 | 0.00 | 83 | 1020.7 |
| 20260902030328 | 72 | 39 | 1.0 | 3.0 | 0.00 | 0.00 | 0.00 | 82 | 1020.7 |
| 20260902025841 | 72 | 39 | 1.0 | 3.0 | 0.00 | 0.00 | 0.00 | 82 | 1020.9 |
| 20260902025329 | 72 | 39 | 1.0 | 3.0 | 0.00 | 0.00 | 0.00 | 81 | 1020.9 |
| 20260902024828 | 72 | 39 | 1.0 | 3.0 | 0.00 | 0.00 | 0.00 | 81 | 1020.8 |
| 20260902024329 | 72 | 40 | 1.0 | 3.0 | 0.00 | 0.00 | 0.00 | 81 | 1020.9 |
| 20260902023828 | 72 | 41 | 1.0 | 3.0 | 0.00 | 0.00 | 0.00 | 81 | 1020.9 |